Hourly Data Report for October 02, 2017

All times are specified in Local Standard Time (LST). Add 1 hour to adjust for Daylight Saving Time where and when it is observed.

GEORGE ISLAND (AUT)
MANITOBA

52°49'07.014" N
97°36'59.028" W
222.50 m
5030984
71445
WWS

Download Data

Hourly Data (October 2017)
Hourly Data Report for October 2, 2017
Temp Definition
°C
Dew Point Temp Definition
°C
Rel Hum Definition
%
Wind Dir Definition
10's deg

Wind Spd Definition
km/h
Visibility Definition
km
Stn Press Definition
kPa
Hmdx Definition


Wind Chill Definition


Weather Definition


TIME
00:00 13.6 13.1 96 14 9   97.61     LegendNANA
01:00 13.6 13.1 97 14 9   97.56     LegendNANA
02:00 13.5 13.2 98 16 16   97.67     LegendNANA
03:00 13.9 13.3 96 17 18   97.59     LegendNANA
04:00 13.7 13.2 97 14 1   97.53     LegendNANA
05:00 13.5 13.1 98 14 13   97.56     LegendNANA
06:00 13.6 13.1 97 14 10   97.57     LegendNANA
07:00 13.5 13.2 98 13 9   97.64     LegendNANA
08:00 13.6 13.3 98 10 9   97.60     LegendNANA
09:00 13.7 13.4 98 9 10   97.57     LegendNANA
10:00 13.8 13.5 98 11 8   97.56     LegendNANA
11:00 13.9 13.6 98 11 7   97.53     LegendNANA
12:00 14.2 13.8 98 14 14   97.53     LegendNANA
13:00 14.2 13.6 96 15 20   97.55     LegendNANA
14:00 14.4 13.8 96 17 26   97.56     LegendNANA
15:00 13.9 12.3 90 20 42   97.58     LegendNANA
16:00 14.0 11.5 85 18 41   97.67     LegendNANA
17:00 13.7 11.1 84 18 40   97.74     LegendNANA
18:00 13.6 10.8 83 18 47   97.82     LegendNANA
19:00 13.5 10.6 83 20 46   97.93     LegendNANA
20:00 12.2 8.3 77 22 50   98.04     LegendNANA
21:00 12.1 7.6 74 22 43   98.15     LegendNANA
22:00 11.8 6.7 71 22 47   98.20     LegendNANA
23:00 11.6 6.3 70 23 46   98.23     LegendNANA

Notes on Data Quality.

Legend

  • E = Estimated
  • M = Missing
  • NA = Not Available
  • ‡ = Partner data that is not subject to review by the National Climate Archives
Date modified: